owner,sensor,date,latitude,longitude,vertical_datum,sea_water_practical_salinity,qcFlag 
DISL,ioos:station:DISL:CATA:1,2013-04-01T00:00:00Z,30.3085,-88.1395,2.286,8.62,1111122 
DISL,ioos:station:DISL:CATA:1,2013-04-01T00:30:00Z,30.3085,-88.1395,2.259,8.75,1111122 
DISL,ioos:station:DISL:CATA:1,2013-04-01T01:00:00Z,30.3085,-88.1395,2.247,8.51,1111122 
DISL,ioos:station:DISL:CATA:1,2013-04-01T01:30:00Z,30.3085,-88.1395,2.236,8.74,1111122 
DISL,ioos:station:DISL:CATA:1,2013-04-01T02:00:00Z,30.3085,-88.1395,2.174,8.67,1111122 
DISL,ioos:station:DISL:CATA:1,2013-04-01T02:30:00Z,30.3085,-88.1395,2.094,9.05,1111122 
DISL,ioos:station:DISL:CATA:1,2013-04-01T03:00:00Z,30.3085,-88.1395,2.045,8.31,1111122 
DISL,ioos:station:DISL:CATA:1,2013-04-01T03:30:00Z,30.3085,-88.1395,2.012,8.07,1111122 
DISL,ioos:station:DISL:CATA:1,2013-04-01T04:00:00Z,30.3085,-88.1395,1.988,7.79,1111122 
DISL,ioos:station:DISL:CATA:1,2013-04-01T04:30:00Z,30.3085,-88.1395,1.959,7.53,1111122 
DISL,ioos:station:DISL:CATA:1,2013-04-01T05:00:00Z,30.3085,-88.1395,1.949,7.54,1111122 
DISL,ioos:station:DISL:CATA:1,2013-04-01T05:30:00Z,30.3085,-88.1395,1.978,7.43,1111122 
DISL,ioos:station:DISL:CATA:1,2013-04-01T06:00:00Z,30.3085,-88.1395,2.033,7.3,1111122 
DISL,ioos:station:DISL:CATA:1,2013-04-01T06:30:00Z,30.3085,-88.1395,2.075,7.2,1111122 
DISL,ioos:station:DISL:CATA:1,2013-04-01T07:00:00Z,30.3085,-88.1395,2.118,6.99,1111122 
DISL,ioos:station:DISL:CATA:1,2013-04-01T07:30:00Z,30.3085,-88.1395,2.109,7.09,1111122 
DISL,ioos:station:DISL:CATA:1,2013-04-01T08:00:00Z,30.3085,-88.1395,2.062,7.13,1111122 
DISL,ioos:station:DISL:CATA:1,2013-04-01T08:30:00Z,30.3085,-88.1395,2.062,7.11,1111122 
DISL,ioos:station:DISL:CATA:1,2013-04-01T09:00:00Z,30.3085,-88.1395,2.089,7.16,1111122 
DISL,ioos:station:DISL:CATA:1,2013-04-01T09:30:00Z,30.3085,-88.1395,2.1,7.2,1111122 
DISL,ioos:station:DISL:CATA:1,2013-04-01T10:00:00Z,30.3085,-88.1395,2.101,7.23,1111122 
DISL,ioos:station:DISL:CATA:1,2013-04-01T10:30:00Z,30.3085,-88.1395,2.112,7.31,1111122 
DISL,ioos:station:DISL:CATA:1,2013-04-01T11:00:00Z,30.3085,-88.1395,2.162,7.52,1111122 
DISL,ioos:station:DISL:CATA:1,2013-04-01T11:30:00Z,30.3085,-88.1395,2.179,7.45,1111122 
DISL,ioos:station:DISL:CATA:1,2013-04-01T12:00:00Z,30.3085,-88.1395,2.204,7.31,1111122 
DISL,ioos:station:DISL:CATA:1,2013-04-01T12:30:00Z,30.3085,-88.1395,2.226,7.15,1111122 
DISL,ioos:station:DISL:CATA:1,2013-04-01T13:00:00Z,30.3085,-88.1395,2.263,7.51,1111122 
DISL,ioos:station:DISL:CATA:1,2013-04-01T13:30:00Z,30.3085,-88.1395,2.304,7.7,1111122 
DISL,ioos:station:DISL:CATA:1,2013-04-01T14:00:00Z,30.3085,-88.1395,2.335,7.76,1111122 
DISL,ioos:station:DISL:CATA:1,2013-04-01T14:30:00Z,30.3085,-88.1395,2.37,7.94,1111122 
DISL,ioos:station:DISL:CATA:1,2013-04-01T15:00:00Z,30.3085,-88.1395,2.399,9.03,1111122 
DISL,ioos:station:DISL:CATA:1,2013-04-01T15:30:00Z,30.3085,-88.1395,2.412,10.94,1111122 
DISL,ioos:station:DISL:CATA:1,2013-04-01T16:00:00Z,30.3085,-88.1395,2.415,12.24,1111122 
DISL,ioos:station:DISL:CATA:1,2013-04-01T16:30:00Z,30.3085,-88.1395,2.435,13.32,1111122 
DISL,ioos:station:DISL:CATA:1,2013-04-01T17:00:00Z,30.3085,-88.1395,2.46,14.12,1111122 
DISL,ioos:station:DISL:CATA:1,2013-04-01T17:30:00Z,30.3085,-88.1395,2.47,15.07,1111122 
DISL,ioos:station:DISL:CATA:1,2013-04-01T18:00:00Z,30.3085,-88.1395,2.482,15.41,1111122 
DISL,ioos:station:DISL:CATA:1,2013-04-01T18:30:00Z,30.3085,-88.1395,2.495,16.09,1111122 
DISL,ioos:station:DISL:CATA:1,2013-04-01T19:00:00Z,30.3085,-88.1395,2.516,16.74,1111122 
DISL,ioos:station:DISL:CATA:1,2013-04-01T19:30:00Z,30.3085,-88.1395,2.515,17.06,1111122 
DISL,ioos:station:DISL:CATA:1,2013-04-01T20:00:00Z,30.3085,-88.1395,2.496,17.52,1111122 
DISL,ioos:station:DISL:CATA:1,2013-04-01T20:30:00Z,30.3085,-88.1395,2.476,17.76,1111122 
DISL,ioos:station:DISL:CATA:1,2013-04-01T21:00:00Z,30.3085,-88.1395,2.456,17.96,1111122 
DISL,ioos:station:DISL:CATA:1,2013-04-01T21:30:00Z,30.3085,-88.1395,2.42,18.1,1111122 
DISL,ioos:station:DISL:CATA:1,2013-04-01T22:00:00Z,30.3085,-88.1395,2.4,18.15,1111122 
DISL,ioos:station:DISL:CATA:1,2013-04-01T22:30:00Z,30.3085,-88.1395,2.359,17.23,1111122 
DISL,ioos:station:DISL:CATA:1,2013-04-01T23:00:00Z,30.3085,-88.1395,2.335,9.59,1111122 
DISL,ioos:station:DISL:CATA:1,2013-04-01T23:30:00Z,30.3085,-88.1395,2.305,7.98,1111122 
DISL,ioos:station:DISL:CATA:1,2013-04-02T00:00:00Z,30.3085,-88.1395,2.284,7.78,1111122 
DISL,ioos:station:DISL:CATA:1,2013-04-02T00:30:00Z,30.3085,-88.1395,2.266,7.36,1111122 
DISL,ioos:station:DISL:CATA:1,2013-04-02T01:00:00Z,30.3085,-88.1395,2.232,7.21,1111122 
DISL,ioos:station:DISL:CATA:1,2013-04-02T01:30:00Z,30.3085,-88.1395,2.197,7.34,1111122 
DISL,ioos:station:DISL:CATA:1,2013-04-02T02:00:00Z,30.3085,-88.1395,2.161,7.22,1111122 
DISL,ioos:station:DISL:CATA:1,2013-04-02T02:30:00Z,30.3085,-88.1395,2.131,7.2,1111122 
DISL,ioos:station:DISL:CATA:1,2013-04-02T03:00:00Z,30.3085,-88.1395,2.1,6.9,1111122 
DISL,ioos:station:DISL:CATA:1,2013-04-02T03:30:00Z,30.3085,-88.1395,2.061,6.5,1111122 
DISL,ioos:station:DISL:CATA:1,2013-04-02T04:00:00Z,30.3085,-88.1395,2.041,6.06,1111122 
DISL,ioos:station:DISL:CATA:1,2013-04-02T04:30:00Z,30.3085,-88.1395,2.001,5.66,1111122 
DISL,ioos:station:DISL:CATA:1,2013-04-02T05:00:00Z,30.3085,-88.1395,1.986,5.08,1111122 
DISL,ioos:station:DISL:CATA:1,2013-04-02T05:30:00Z,30.3085,-88.1395,1.966,4.83,1111122 
DISL,ioos:station:DISL:CATA:1,2013-04-02T06:00:00Z,30.3085,-88.1395,1.952,4.65,1111122 
DISL,ioos:station:DISL:CATA:1,2013-04-02T06:30:00Z,30.3085,-88.1395,1.953,4.55,1111122 
DISL,ioos:station:DISL:CATA:1,2013-04-02T07:00:00Z,30.3085,-88.1395,1.951,4.33,1111122 
DISL,ioos:station:DISL:CATA:1,2013-04-02T07:30:00Z,30.3085,-88.1395,1.943,4.2,1111122 
DISL,ioos:station:DISL:CATA:1,2013-04-02T08:00:00Z,30.3085,-88.1395,1.952,4.11,1111122 
DISL,ioos:station:DISL:CATA:1,2013-04-02T08:30:00Z,30.3085,-88.1395,1.952,4.03,1111122 
DISL,ioos:station:DISL:CATA:1,2013-04-02T09:00:00Z,30.3085,-88.1395,1.952,3.87,1111122 
DISL,ioos:station:DISL:CATA:1,2013-04-02T09:30:00Z,30.3085,-88.1395,1.968,3.87,1111122 
DISL,ioos:station:DISL:CATA:1,2013-04-02T10:00:00Z,30.3085,-88.1395,1.99,3.54,1111122 
DISL,ioos:station:DISL:CATA:1,2013-04-02T10:30:00Z,30.3085,-88.1395,2.012,3.71,1111122 
DISL,ioos:station:DISL:CATA:1,2013-04-02T11:00:00Z,30.3085,-88.1395,2.03,3.78,1111122 
DISL,ioos:station:DISL:CATA:1,2013-04-02T11:30:00Z,30.3085,-88.1395,2.051,3.85,1111122 
DISL,ioos:station:DISL:CATA:1,2013-04-02T12:00:00Z,30.3085,-88.1395,2.081,3.65,1111122 
DISL,ioos:station:DISL:CATA:1,2013-04-02T12:30:00Z,30.3085,-88.1395,2.11,3.67,1111122 
DISL,ioos:station:DISL:CATA:1,2013-04-02T13:00:00Z,30.3085,-88.1395,2.145,3.66,1111122 
DISL,ioos:station:DISL:CATA:1,2013-04-02T13:30:00Z,30.3085,-88.1395,2.178,3.83,1111122 
DISL,ioos:station:DISL:CATA:1,2013-04-02T14:00:00Z,30.3085,-88.1395,2.205,3.81,1111122 
DISL,ioos:station:DISL:CATA:1,2013-04-02T14:30:00Z,30.3085,-88.1395,2.232,3.9,1111122 
DISL,ioos:station:DISL:CATA:1,2013-04-02T15:00:00Z,30.3085,-88.1395,2.25,3.8,1111122 
DISL,ioos:station:DISL:CATA:1,2013-04-02T15:30:00Z,30.3085,-88.1395,2.262,4.01,1111122 
DISL,ioos:station:DISL:CATA:1,2013-04-02T16:00:00Z,30.3085,-88.1395,2.292,4.36,1111122 
DISL,ioos:station:DISL:CATA:1,2013-04-02T16:30:00Z,30.3085,-88.1395,2.318,6.43,1111122 
DISL,ioos:station:DISL:CATA:1,2013-04-02T17:00:00Z,30.3085,-88.1395,2.35,8.45,1111122 
DISL,ioos:station:DISL:CATA:1,2013-04-02T17:30:00Z,30.3085,-88.1395,2.384,9.91,1111122 
DISL,ioos:station:DISL:CATA:1,2013-04-02T18:00:00Z,30.3085,-88.1395,2.416,10.65,1111122 
DISL,ioos:station:DISL:CATA:1,2013-04-02T18:30:00Z,30.3085,-88.1395,2.443,11.62,1111122 
DISL,ioos:station:DISL:CATA:1,2013-04-02T19:00:00Z,30.3085,-88.1395,2.452,11.63,1111122 
DISL,ioos:station:DISL:CATA:1,2013-04-02T19:30:00Z,30.3085,-88.1395,2.467,11.52,1111122 
DISL,ioos:station:DISL:CATA:1,2013-04-02T20:00:00Z,30.3085,-88.1395,2.488,11.61,1111122 
DISL,ioos:station:DISL:CATA:1,2013-04-02T20:30:00Z,30.3085,-88.1395,2.486,12.54,1111122 
DISL,ioos:station:DISL:CATA:1,2013-04-02T21:00:00Z,30.3085,-88.1395,2.483,12.94,1111122 
DISL,ioos:station:DISL:CATA:1,2013-04-02T21:30:00Z,30.3085,-88.1395,2.463,13.11,1111122 
DISL,ioos:station:DISL:CATA:1,2013-04-02T22:00:00Z,30.3085,-88.1395,2.469,13.81,1111122 
DISL,ioos:station:DISL:CATA:1,2013-04-02T22:30:00Z,30.3085,-88.1395,2.445,14.03,1111122 
DISL,ioos:station:DISL:CATA:1,2013-04-02T23:00:00Z,30.3085,-88.1395,2.421,14.27,1111122 
DISL,ioos:station:DISL:CATA:1,2013-04-02T23:30:00Z,30.3085,-88.1395,2.404,12.31,1111122 
DISL,ioos:station:DISL:CATA:1,2013-04-03T00:00:00Z,30.3085,-88.1395,2.379,6.65,1111122 
DISL,ioos:station:DISL:CATA:1,2013-04-03T00:30:00Z,30.3085,-88.1395,2.349,4.13,1111122 
DISL,ioos:station:DISL:CATA:1,2013-04-03T01:00:00Z,30.3085,-88.1395,2.321,4.29,1111122 
DISL,ioos:station:DISL:CATA:1,2013-04-03T01:30:00Z,30.3085,-88.1395,2.284,4.13,1111122 
DISL,ioos:station:DISL:CATA:1,2013-04-03T02:00:00Z,30.3085,-88.1395,2.253,3.98,1111122 
DISL,ioos:station:DISL:CATA:1,2013-04-03T02:30:00Z,30.3085,-88.1395,2.218,4.0,1111122 
DISL,ioos:station:DISL:CATA:1,2013-04-03T03:00:00Z,30.3085,-88.1395,2.174,3.96,1111122 
DISL,ioos:station:DISL:CATA:1,2013-04-03T03:30:00Z,30.3085,-88.1395,2.131,3.88,1111122 
DISL,ioos:station:DISL:CATA:1,2013-04-03T04:00:00Z,30.3085,-88.1395,2.106,3.83,1111122 
DISL,ioos:station:DISL:CATA:1,2013-04-03T04:30:00Z,30.3085,-88.1395,2.086,3.82,1111122 
DISL,ioos:station:DISL:CATA:1,2013-04-03T05:00:00Z,30.3085,-88.1395,2.061,3.83,1111122 
DISL,ioos:station:DISL:CATA:1,2013-04-03T05:30:00Z,30.3085,-88.1395,2.034,3.84,1111122 
DISL,ioos:station:DISL:CATA:1,2013-04-03T06:00:00Z,30.3085,-88.1395,2.03,3.88,1111122 
DISL,ioos:station:DISL:CATA:1,2013-04-03T06:30:00Z,30.3085,-88.1395,2.014,3.88,1111122 
DISL,ioos:station:DISL:CATA:1,2013-04-03T07:00:00Z,30.3085,-88.1395,2.011,3.9,1111122 
DISL,ioos:station:DISL:CATA:1,2013-04-03T07:30:00Z,30.3085,-88.1395,1.991,3.82,1111122 
DISL,ioos:station:DISL:CATA:1,2013-04-03T08:00:00Z,30.3085,-88.1395,1.993,3.8,1111122 
DISL,ioos:station:DISL:CATA:1,2013-04-03T08:30:00Z,30.3085,-88.1395,2.003,3.79,1111122 
DISL,ioos:station:DISL:CATA:1,2013-04-03T09:00:00Z,30.3085,-88.1395,2.026,3.79,1111122 
DISL,ioos:station:DISL:CATA:1,2013-04-03T09:30:00Z,30.3085,-88.1395,2.027,3.85,1111122 
DISL,ioos:station:DISL:CATA:1,2013-04-03T10:00:00Z,30.3085,-88.1395,2.053,3.87,1111122 
DISL,ioos:station:DISL:CATA:1,2013-04-03T10:30:00Z,30.3085,-88.1395,2.08,4.04,1111122 
DISL,ioos:station:DISL:CATA:1,2013-04-03T11:00:00Z,30.3085,-88.1395,2.099,4.05,1111122 
DISL,ioos:station:DISL:CATA:1,2013-04-03T11:30:00Z,30.3085,-88.1395,2.129,4.01,1111122 
DISL,ioos:station:DISL:CATA:1,2013-04-03T12:00:00Z,30.3085,-88.1395,2.166,4.0,1111122 
DISL,ioos:station:DISL:CATA:1,2013-04-03T12:30:00Z,30.3085,-88.1395,2.171,3.97,1111122 
DISL,ioos:station:DISL:CATA:1,2013-04-03T13:00:00Z,30.3085,-88.1395,2.171,3.99,1111122 
DISL,ioos:station:DISL:CATA:1,2013-04-03T13:30:00Z,30.3085,-88.1395,2.106,3.91,1111122 
DISL,ioos:station:DISL:CATA:1,2013-04-03T14:00:00Z,30.3085,-88.1395,2.115,4.0,1111122 
DISL,ioos:station:DISL:CATA:1,2013-04-03T14:30:00Z,30.3085,-88.1395,2.108,4.1,1111122 
DISL,ioos:station:DISL:CATA:1,2013-04-03T15:00:00Z,30.3085,-88.1395,2.107,4.11,1111122 
DISL,ioos:station:DISL:CATA:1,2013-04-03T15:30:00Z,30.3085,-88.1395,2.143,4.06,1111122 
DISL,ioos:station:DISL:CATA:1,2013-04-03T16:00:00Z,30.3085,-88.1395,2.196,3.97,1111122 
DISL,ioos:station:DISL:CATA:1,2013-04-03T16:30:00Z,30.3085,-88.1395,2.253,3.9,1111122 
DISL,ioos:station:DISL:CATA:1,2013-04-03T17:00:00Z,30.3085,-88.1395,2.304,3.81,1111122 
DISL,ioos:station:DISL:CATA:1,2013-04-03T17:30:00Z,30.3085,-88.1395,2.373,3.94,1111122 
DISL,ioos:station:DISL:CATA:1,2013-04-03T18:00:00Z,30.3085,-88.1395,2.392,3.92,1111122 
DISL,ioos:station:DISL:CATA:1,2013-04-03T18:30:00Z,30.3085,-88.1395,2.441,3.93,1111122 
DISL,ioos:station:DISL:CATA:1,2013-04-03T19:00:00Z,30.3085,-88.1395,2.358,4.16,1111122 
DISL,ioos:station:DISL:CATA:1,2013-04-03T19:30:00Z,30.3085,-88.1395,2.284,4.16,1111122 
DISL,ioos:station:DISL:CATA:1,2013-04-03T20:00:00Z,30.3085,-88.1395,2.257,4.14,1111122 
DISL,ioos:station:DISL:CATA:1,2013-04-03T20:30:00Z,30.3085,-88.1395,2.249,4.16,1111122 
DISL,ioos:station:DISL:CATA:1,2013-04-03T21:00:00Z,30.3085,-88.1395,2.405,4.17,1111122 
DISL,ioos:station:DISL:CATA:1,2013-04-03T21:30:00Z,30.3085,-88.1395,2.624,4.13,1111122 
DISL,ioos:station:DISL:CATA:1,2013-04-03T22:00:00Z,30.3085,-88.1395,2.757,4.13,1111122 
DISL,ioos:station:DISL:CATA:1,2013-04-03T22:30:00Z,30.3085,-88.1395,2.747,4.04,1111122 
DISL,ioos:station:DISL:CATA:1,2013-04-03T23:00:00Z,30.3085,-88.1395,2.784,3.13,1111122 
DISL,ioos:station:DISL:CATA:1,2013-04-03T23:30:00Z,30.3085,-88.1395,2.817,3.86,1111122 
DISL,ioos:station:DISL:CATA:1,2013-04-04T00:00:00Z,30.3085,-88.1395,2.721,3.85,1111122 
DISL,ioos:station:DISL:CATA:1,2013-04-04T00:30:00Z,30.3085,-88.1395,2.654,3.84,1111122 
DISL,ioos:station:DISL:CATA:1,2013-04-04T01:00:00Z,30.3085,-88.1395,2.583,4.0,1111122 
DISL,ioos:station:DISL:CATA:1,2013-04-04T01:30:00Z,30.3085,-88.1395,2.555,3.91,1111122 
DISL,ioos:station:DISL:CATA:1,2013-04-04T02:00:00Z,30.3085,-88.1395,2.51,3.73,1111122 
DISL,ioos:station:DISL:CATA:1,2013-04-04T02:30:00Z,30.3085,-88.1395,2.429,3.99,1111122 
DISL,ioos:station:DISL:CATA:1,2013-04-04T03:00:00Z,30.3085,-88.1395,2.402,3.87,1111122 
DISL,ioos:station:DISL:CATA:1,2013-04-04T03:30:00Z,30.3085,-88.1395,2.352,3.81,1111122 
DISL,ioos:station:DISL:CATA:1,2013-04-04T04:00:00Z,30.3085,-88.1395,2.282,3.92,1111122 
DISL,ioos:station:DISL:CATA:1,2013-04-04T04:30:00Z,30.3085,-88.1395,2.265,3.66,1111122 
DISL,ioos:station:DISL:CATA:1,2013-04-04T05:00:00Z,30.3085,-88.1395,2.22,3.62,1111122 
DISL,ioos:station:DISL:CATA:1,2013-04-04T05:30:00Z,30.3085,-88.1395,2.198,3.58,1111122 
DISL,ioos:station:DISL:CATA:1,2013-04-04T06:00:00Z,30.3085,-88.1395,2.166,3.48,1111122 
DISL,ioos:station:DISL:CATA:1,2013-04-04T06:30:00Z,30.3085,-88.1395,2.158,5.27,1111122 
DISL,ioos:station:DISL:CATA:1,2013-04-04T07:00:00Z,30.3085,-88.1395,2.186,5.56,1111122 
DISL,ioos:station:DISL:CATA:1,2013-04-04T07:30:00Z,30.3085,-88.1395,2.203,5.46,1111122 
DISL,ioos:station:DISL:CATA:1,2013-04-04T08:00:00Z,30.3085,-88.1395,2.236,5.59,1111122 
DISL,ioos:station:DISL:CATA:1,2013-04-04T08:30:00Z,30.3085,-88.1395,2.234,5.59,1111122 
DISL,ioos:station:DISL:CATA:1,2013-04-04T09:00:00Z,30.3085,-88.1395,2.21,5.5,1111122 
DISL,ioos:station:DISL:CATA:1,2013-04-04T09:30:00Z,30.3085,-88.1395,2.151,5.13,1111122 
DISL,ioos:station:DISL:CATA:1,2013-04-04T10:00:00Z,30.3085,-88.1395,2.107,5.05,1111122 
DISL,ioos:station:DISL:CATA:1,2013-04-04T10:30:00Z,30.3085,-88.1395,2.135,4.91,1111122 
DISL,ioos:station:DISL:CATA:1,2013-04-04T11:00:00Z,30.3085,-88.1395,2.152,4.65,1111122 
DISL,ioos:station:DISL:CATA:1,2013-04-04T11:30:00Z,30.3085,-88.1395,2.17,4.64,1111122 
DISL,ioos:station:DISL:CATA:1,2013-04-04T12:00:00Z,30.3085,-88.1395,2.185,4.82,1111122 
DISL,ioos:station:DISL:CATA:1,2013-04-04T12:30:00Z,30.3085,-88.1395,2.21,4.95,1111122 
DISL,ioos:station:DISL:CATA:1,2013-04-04T13:00:00Z,30.3085,-88.1395,2.256,5.02,1111122 
DISL,ioos:station:DISL:CATA:1,2013-04-04T13:30:00Z,30.3085,-88.1395,2.258,4.84,1111122 
DISL,ioos:station:DISL:CATA:1,2013-04-04T14:00:00Z,30.3085,-88.1395,2.264,4.43,1111122 
DISL,ioos:station:DISL:CATA:1,2013-04-04T14:30:00Z,30.3085,-88.1395,2.29,4.43,1111122 
DISL,ioos:station:DISL:CATA:1,2013-04-04T15:00:00Z,30.3085,-88.1395,2.304,4.14,1111122 
DISL,ioos:station:DISL:CATA:1,2013-04-04T15:30:00Z,30.3085,-88.1395,2.319,4.05,1111122 
DISL,ioos:station:DISL:CATA:1,2013-04-04T16:00:00Z,30.3085,-88.1395,2.327,3.87,1111122 
DISL,ioos:station:DISL:CATA:1,2013-04-04T16:30:00Z,30.3085,-88.1395,2.352,3.82,1111122 
DISL,ioos:station:DISL:CATA:1,2013-04-04T17:00:00Z,30.3085,-88.1395,2.384,3.95,1111122 
DISL,ioos:station:DISL:CATA:1,2013-04-04T17:30:00Z,30.3085,-88.1395,2.413,4.21,1111122 
DISL,ioos:station:DISL:CATA:1,2013-04-04T18:00:00Z,30.3085,-88.1395,2.44,4.19,1111122 
DISL,ioos:station:DISL:CATA:1,2013-04-04T18:30:00Z,30.3085,-88.1395,2.434,4.4,1111122 
DISL,ioos:station:DISL:CATA:1,2013-04-04T19:00:00Z,30.3085,-88.1395,2.449,5.22,1111122 
DISL,ioos:station:DISL:CATA:1,2013-04-04T19:30:00Z,30.3085,-88.1395,2.441,5.6,1111122 
DISL,ioos:station:DISL:CATA:1,2013-04-04T20:00:00Z,30.3085,-88.1395,2.472,5.89,1111122 
DISL,ioos:station:DISL:CATA:1,2013-04-04T20:30:00Z,30.3085,-88.1395,2.496,5.71,1111122 
DISL,ioos:station:DISL:CATA:1,2013-04-04T21:00:00Z,30.3085,-88.1395,2.532,5.46,1111122 
DISL,ioos:station:DISL:CATA:1,2013-04-04T21:30:00Z,30.3085,-88.1395,2.505,5.84,1111122 
DISL,ioos:station:DISL:CATA:1,2013-04-04T22:00:00Z,30.3085,-88.1395,2.513,6.22,1111122 
DISL,ioos:station:DISL:CATA:1,2013-04-04T22:30:00Z,30.3085,-88.1395,2.517,6.42,1111122 
DISL,ioos:station:DISL:CATA:1,2013-04-04T23:00:00Z,30.3085,-88.1395,2.53,6.59,1111122 
DISL,ioos:station:DISL:CATA:1,2013-04-04T23:30:00Z,30.3085,-88.1395,2.547,6.63,1111122 
DISL,ioos:station:DISL:CATA:1,2013-04-05T00:00:00Z,30.3085,-88.1395,2.525,6.71,1111122 
DISL,ioos:station:DISL:CATA:1,2013-04-05T00:30:00Z,30.3085,-88.1395,2.509,6.78,1111122 
DISL,ioos:station:DISL:CATA:1,2013-04-05T01:00:00Z,30.3085,-88.1395,2.497,6.67,1111122 
DISL,ioos:station:DISL:CATA:1,2013-04-05T01:30:00Z,30.3085,-88.1395,2.484,6.75,1111122 
DISL,ioos:station:DISL:CATA:1,2013-04-05T02:00:00Z,30.3085,-88.1395,2.472,6.94,1111122 
DISL,ioos:station:DISL:CATA:1,2013-04-05T02:30:00Z,30.3085,-88.1395,2.432,7.08,1111122 
DISL,ioos:station:DISL:CATA:1,2013-04-05T03:00:00Z,30.3085,-88.1395,2.411,7.08,1111122 
DISL,ioos:station:DISL:CATA:1,2013-04-05T03:30:00Z,30.3085,-88.1395,2.408,7.02,1111122 
DISL,ioos:station:DISL:CATA:1,2013-04-05T04:00:00Z,30.3085,-88.1395,2.361,6.88,1111122 
DISL,ioos:station:DISL:CATA:1,2013-04-05T04:30:00Z,30.3085,-88.1395,2.293,5.82,1111122 
DISL,ioos:station:DISL:CATA:1,2013-04-05T05:00:00Z,30.3085,-88.1395,2.232,5.39,1111122 
DISL,ioos:station:DISL:CATA:1,2013-04-05T05:30:00Z,30.3085,-88.1395,2.2,5.09,1111122 
DISL,ioos:station:DISL:CATA:1,2013-04-05T06:00:00Z,30.3085,-88.1395,2.189,5.49,1111122 
DISL,ioos:station:DISL:CATA:1,2013-04-05T06:30:00Z,30.3085,-88.1395,2.164,5.15,1111122 
DISL,ioos:station:DISL:CATA:1,2013-04-05T07:00:00Z,30.3085,-88.1395,2.151,5.17,1111122 
DISL,ioos:station:DISL:CATA:1,2013-04-05T07:30:00Z,30.3085,-88.1395,2.115,5.19,1111122 
DISL,ioos:station:DISL:CATA:1,2013-04-05T08:00:00Z,30.3085,-88.1395,2.109,4.86,1111122 
DISL,ioos:station:DISL:CATA:1,2013-04-05T08:30:00Z,30.3085,-88.1395,2.094,4.7,1111122 
DISL,ioos:station:DISL:CATA:1,2013-04-05T09:00:00Z,30.3085,-88.1395,2.086,4.51,1111122 
DISL,ioos:station:DISL:CATA:1,2013-04-05T09:30:00Z,30.3085,-88.1395,2.073,4.41,1111122 
DISL,ioos:station:DISL:CATA:1,2013-04-05T10:00:00Z,30.3085,-88.1395,2.053,4.49,1111122 
DISL,ioos:station:DISL:CATA:1,2013-04-05T10:30:00Z,30.3085,-88.1395,2.047,4.55,1111122 
DISL,ioos:station:DISL:CATA:1,2013-04-05T11:00:00Z,30.3085,-88.1395,2.041,4.97,1111122 
DISL,ioos:station:DISL:CATA:1,2013-04-05T11:30:00Z,30.3085,-88.1395,2.025,4.94,1111122 
DISL,ioos:station:DISL:CATA:1,2013-04-05T12:00:00Z,30.3085,-88.1395,2.019,4.69,1111122 
DISL,ioos:station:DISL:CATA:1,2013-04-05T12:30:00Z,30.3085,-88.1395,2.008,5.02,1111122 
DISL,ioos:station:DISL:CATA:1,2013-04-05T13:00:00Z,30.3085,-88.1395,2.028,4.93,1111122 
DISL,ioos:station:DISL:CATA:1,2013-04-05T13:30:00Z,30.3085,-88.1395,2.026,4.9,1111122 
DISL,ioos:station:DISL:CATA:1,2013-04-05T14:00:00Z,30.3085,-88.1395,2.031,4.89,1111122 
DISL,ioos:station:DISL:CATA:1,2013-04-05T14:30:00Z,30.3085,-88.1395,2.047,4.88,1111122 
DISL,ioos:station:DISL:CATA:1,2013-04-05T15:00:00Z,30.3085,-88.1395,2.066,4.97,1111122 
DISL,ioos:station:DISL:CATA:1,2013-04-05T15:30:00Z,30.3085,-88.1395,2.093,4.68,1111122 
DISL,ioos:station:DISL:CATA:1,2013-04-05T16:00:00Z,30.3085,-88.1395,2.086,4.56,1111122 
DISL,ioos:station:DISL:CATA:1,2013-04-05T16:30:00Z,30.3085,-88.1395,2.078,4.45,1111122 
DISL,ioos:station:DISL:CATA:1,2013-04-05T17:00:00Z,30.3085,-88.1395,2.089,4.42,1111122 
DISL,ioos:station:DISL:CATA:1,2013-04-05T17:30:00Z,30.3085,-88.1395,2.103,4.72,1111122 
DISL,ioos:station:DISL:CATA:1,2013-04-05T18:00:00Z,30.3085,-88.1395,2.096,4.98,1111122 
DISL,ioos:station:DISL:CATA:1,2013-04-05T18:30:00Z,30.3085,-88.1395,2.106,4.99,1111122 
DISL,ioos:station:DISL:CATA:1,2013-04-05T19:00:00Z,30.3085,-88.1395,2.127,5.01,1111122 
DISL,ioos:station:DISL:CATA:1,2013-04-05T19:30:00Z,30.3085,-88.1395,2.145,4.82,1111122 
DISL,ioos:station:DISL:CATA:1,2013-04-05T20:00:00Z,30.3085,-88.1395,2.164,4.97,1111122 
DISL,ioos:station:DISL:CATA:1,2013-04-05T20:30:00Z,30.3085,-88.1395,2.168,4.93,1111122 
DISL,ioos:station:DISL:CATA:1,2013-04-05T21:00:00Z,30.3085,-88.1395,2.188,4.93,1111122 
DISL,ioos:station:DISL:CATA:1,2013-04-05T21:30:00Z,30.3085,-88.1395,2.206,4.85,1111122 
DISL,ioos:station:DISL:CATA:1,2013-04-05T22:00:00Z,30.3085,-88.1395,2.216,4.58,1111122 
DISL,ioos:station:DISL:CATA:1,2013-04-05T22:30:00Z,30.3085,-88.1395,2.218,4.16,1111122 
DISL,ioos:station:DISL:CATA:1,2013-04-05T23:00:00Z,30.3085,-88.1395,2.229,4.62,1111122 
DISL,ioos:station:DISL:CATA:1,2013-04-05T23:30:00Z,30.3085,-88.1395,2.235,4.61,1111122 
DISL,ioos:station:DISL:CATA:1,2013-04-06T00:00:00Z,30.3085,-88.1395,2.246,5.17,1111122 
DISL,ioos:station:DISL:CATA:1,2013-04-06T00:30:00Z,30.3085,-88.1395,2.262,5.1,1111122 
DISL,ioos:station:DISL:CATA:1,2013-04-06T01:00:00Z,30.3085,-88.1395,2.255,5.38,1111122 
DISL,ioos:station:DISL:CATA:1,2013-04-06T01:30:00Z,30.3085,-88.1395,2.26,5.92,1111122 
DISL,ioos:station:DISL:CATA:1,2013-04-06T02:00:00Z,30.3085,-88.1395,2.267,6.25,1111122 
DISL,ioos:station:DISL:CATA:1,2013-04-06T02:30:00Z,30.3085,-88.1395,2.264,6.81,1111122 
DISL,ioos:station:DISL:CATA:1,2013-04-06T03:00:00Z,30.3085,-88.1395,2.258,7.19,1111122 
DISL,ioos:station:DISL:CATA:1,2013-04-06T03:30:00Z,30.3085,-88.1395,2.247,7.39,1111122 
DISL,ioos:station:DISL:CATA:1,2013-04-06T04:00:00Z,30.3085,-88.1395,2.244,7.75,1111122 
DISL,ioos:station:DISL:CATA:1,2013-04-06T04:30:00Z,30.3085,-88.1395,2.223,7.91,1111122 
DISL,ioos:station:DISL:CATA:1,2013-04-06T05:00:00Z,30.3085,-88.1395,2.195,7.97,1111122 
DISL,ioos:station:DISL:CATA:1,2013-04-06T05:30:00Z,30.3085,-88.1395,2.153,7.73,1111122 
DISL,ioos:station:DISL:CATA:1,2013-04-06T06:00:00Z,30.3085,-88.1395,2.114,6.81,1111122 
DISL,ioos:station:DISL:CATA:1,2013-04-06T06:30:00Z,30.3085,-88.1395,2.101,4.21,1111122 
DISL,ioos:station:DISL:CATA:1,2013-04-06T07:00:00Z,30.3085,-88.1395,2.078,3.9,1111122 
DISL,ioos:station:DISL:CATA:1,2013-04-06T07:30:00Z,30.3085,-88.1395,2.061,3.92,1111122 
DISL,ioos:station:DISL:CATA:1,2013-04-06T08:00:00Z,30.3085,-88.1395,2.041,4.02,1111122 
DISL,ioos:station:DISL:CATA:1,2013-04-06T08:30:00Z,30.3085,-88.1395,2.029,4.26,1111122 
DISL,ioos:station:DISL:CATA:1,2013-04-06T09:00:00Z,30.3085,-88.1395,2.02,4.19,1111122 
DISL,ioos:station:DISL:CATA:1,2013-04-06T09:30:00Z,30.3085,-88.1395,2.009,4.46,1111122 
DISL,ioos:station:DISL:CATA:1,2013-04-06T10:00:00Z,30.3085,-88.1395,2.007,4.49,1111122 
DISL,ioos:station:DISL:CATA:1,2013-04-06T10:30:00Z,30.3085,-88.1395,2.009,4.48,1111122 
DISL,ioos:station:DISL:CATA:1,2013-04-06T11:00:00Z,30.3085,-88.1395,2.015,4.6,1111122 
DISL,ioos:station:DISL:CATA:1,2013-04-06T11:30:00Z,30.3085,-88.1395,2.022,4.67,1111122 
DISL,ioos:station:DISL:CATA:1,2013-04-06T12:00:00Z,30.3085,-88.1395,2.043,4.71,1111122 
DISL,ioos:station:DISL:CATA:1,2013-04-06T12:30:00Z,30.3085,-88.1395,2.051,4.63,1111122 
DISL,ioos:station:DISL:CATA:1,2013-04-06T13:00:00Z,30.3085,-88.1395,2.067,4.55,1111122 
DISL,ioos:station:DISL:CATA:1,2013-04-06T13:30:00Z,30.3085,-88.1395,2.098,4.53,1111122 
DISL,ioos:station:DISL:CATA:1,2013-04-06T14:00:00Z,30.3085,-88.1395,2.118,4.58,1111122 
DISL,ioos:station:DISL:CATA:1,2013-04-06T14:30:00Z,30.3085,-88.1395,2.125,4.5,1111122 
DISL,ioos:station:DISL:CATA:1,2013-04-06T15:00:00Z,30.3085,-88.1395,2.139,4.63,1111122 
DISL,ioos:station:DISL:CATA:1,2013-04-06T15:30:00Z,30.3085,-88.1395,2.147,4.69,1111122 